| time (UTC) | temp F | wind direction | speed MPH | gust MPH | rain 1hr in | rain 24hr in | rain mn in | humidity % | barometer mb |
| 20260901133556 | 69 | 0 | 0.0 | 1.0 | 0.00 | 0.17 | 0.07 | 96 | 1013.5 |
| 20260901133104 | 69 | 0 | 0.0 | 0.0 | 0.00 | 0.17 | 0.07 | 96 | 1013.4 |
| 20260901132557 | 69 | 0 | 0.0 | 0.0 | 0.00 | 0.17 | 0.07 | 96 | 1013.5 |
| 20260901132054 | 69 | 0 | 0.0 | 0.0 | 0.00 | 0.17 | 0.07 | 96 | 1013.6 |
| 20260901131600 | 69 | 0 | 0.0 | 0.0 | 0.00 | 0.17 | 0.07 | 96 | 1013.5 |
| 20260901131054 | 69 | 0 | 0.0 | 0.0 | 0.00 | 0.17 | 0.07 | 96 | 1013.7 |
| 20260901130556 | 69 | 0 | 0.0 | 0.0 | 0.00 | 0.17 | 0.07 | 96 | 1013.6 |
| 20260901130112 | 69 | 0 | 0.0 | 0.0 | 0.00 | 0.17 | 0.07 | 96 | 1013.7 |
| 20260901125553 | 69 | 0 | 0.0 | 0.0 | 0.00 | 0.17 | 0.07 | 96 | 1013.7 |
| 20260901125055 | 69 | 0 | 0.0 | 0.0 | 0.00 | 0.17 | 0.07 | 96 | 1013.7 |
| 20260901124608 | 68 | 0 | 0.0 | 0.0 | 0.00 | 0.17 | 0.07 | 96 | 1013.8 |
| 20260901124054 | 68 | 0 | 0.0 | 0.0 | 0.00 | 0.17 | 0.07 | 96 | 1013.6 |
| 20260901123556 | 68 | 0 | 0.0 | 0.0 | 0.00 | 0.17 | 0.07 | 96 | 1013.7 |
| 20260901123103 | 68 | 0 | 0.0 | 0.0 | 0.00 | 0.17 | 0.07 | 96 | 1013.8 |
| 20260901122554 | 68 | 0 | 0.0 | 0.0 | 0.00 | 0.17 | 0.07 | 96 | 1013.9 |
| 20260901122055 | 68 | 0 | 0.0 | 0.0 | 0.00 | 0.17 | 0.07 | 96 | 1014.0 |
| 20260901121601 | 68 | 0 | 0.0 | 0.0 | 0.00 | 0.17 | 0.07 | 96 | 1014.0 |
| 20260901121057 | 67 | 0 | 0.0 | 0.0 | 0.00 | 0.17 | 0.07 | 96 | 1014.0 |
| 20260901120554 | 67 | 0 | 0.0 | 0.0 | 0.00 | 0.17 | 0.07 | 96 | 1014.0 |
| 20260901120106 | 67 | 0 | 0.0 | 1.0 | 0.00 | 0.17 | 0.07 | 96 | 1013.9 |
| 20260901115556 | 67 | 0 | 0.0 | 1.0 | 0.00 | 0.17 | 0.07 | 96 | 1014.0 |
| 20260901115054 | 67 | 0 | 0.0 | 0.0 | 0.00 | 0.17 | 0.07 | 96 | 1014.0 |
| 20260901114612 | 67 | 0 | 0.0 | 0.0 | 0.00 | 0.17 | 0.07 | 96 | 1014.1 |
| 20260901114056 | 67 | 0 | 0.0 | 0.0 | 0.00 | 0.17 | 0.07 | 96 | 1014.1 |
| 20260901113554 | 67 | 0 | 0.0 | 0.0 | 0.00 | 0.17 | 0.07 | 96 | 1014.1 |
| 20260901113140 | 67 | 0 | 0.0 | 0.0 | 0.00 | 0.17 | 0.07 | 96 | 1014.0 |
| 20260901112557 | 67 | 0 | 0.0 | 0.0 | 0.00 | 0.17 | 0.07 | 96 | 1013.9 |
| 20260901112055 | 67 | 0 | 0.0 | 0.0 | 0.00 | 0.17 | 0.07 | 96 | 1013.9 |
| 20260901111606 | 67 | 0 | 0.0 | 0.0 | 0.00 | 0.17 | 0.07 | 96 | 1014.0 |
| 20260901111057 | 66 | 0 | 0.0 | 0.0 | 0.00 | 0.17 | 0.07 | 96 | 1014.1 |
| 20260901110601 | 66 | 0 | 0.0 | 0.0 | 0.00 | 0.17 | 0.07 | 96 | 1013.9 |
| 20260901110108 | 66 | 0 | 0.0 | 0.0 | 0.00 | 0.17 | 0.07 | 96 | 1013.9 |
| 20260901105600 | 66 | 0 | 0.0 | 0.0 | 0.00 | 0.17 | 0.07 | 96 | 1014.2 |
| 20260901105057 | 66 | 0 | 0.0 | 0.0 | 0.00 | 0.17 | 0.07 | 96 | 1014.4 |
| 20260901104606 | 66 | 0 | 0.0 | 0.0 | 0.00 | 0.17 | 0.07 | 96 | 1014.3 |
| 20260901104056 | 66 | 0 | 0.0 | 0.0 | 0.00 | 0.17 | 0.07 | 96 | 1014.0 |
| 20260901103557 | 66 | 0 | 0.0 | 0.0 | 0.00 | 0.17 | 0.07 | 96 | 1014.0 |
| 20260901103105 | 66 | 0 | 0.0 | 0.0 | 0.00 | 0.17 | 0.07 | 96 | 1014.0 |
| 20260901102557 | 66 | 0 | 0.0 | 0.0 | 0.00 | 0.17 | 0.07 | 96 | 1013.8 |
| 20260901102057 | 66 | 0 | 0.0 | 0.0 | 0.00 | 0.17 | 0.07 | 96 | 1013.7 |
| 20260901101616 | 66 | 0 | 0.0 | 0.0 | 0.01 | 0.17 | 0.07 | 96 | 1013.8 |
| 20260901101059 | 66 | 0 | 0.0 | 0.0 | 0.01 | 0.17 | 0.07 | 96 | 1013.7 |
| 20260901100559 | 66 | 0 | 0.0 | 0.0 | 0.01 | 0.17 | 0.07 | 96 | 1013.7 |
| 20260901100117 | 66 | 0 | 0.0 | 0.0 | 0.01 | 0.17 | 0.07 | 96 | 1013.7 |
| 20260901095556 | 66 | 0 | 0.0 | 0.0 | 0.01 | 0.17 | 0.07 | 96 | 1013.9 |
| 20260901095054 | 66 | 0 | 0.0 | 0.0 | 0.01 | 0.17 | 0.07 | 96 | 1013.9 |
| 20260901094600 | 66 | 0 | 0.0 | 0.0 | 0.01 | 0.17 | 0.07 | 96 | 1013.8 |
| 20260901094054 | 66 | 0 | 0.0 | 0.0 | 0.01 | 0.17 | 0.07 | 96 | 1013.8 |
| 20260901093601 | 66 | 0 | 0.0 | 0.0 | 0.01 | 0.17 | 0.07 | 96 | 1013.9 |
| 20260901093107 | 66 | 0 | 0.0 | 0.0 | 0.01 | 0.17 | 0.07 | 96 | 1014.2 |
| 20260901092556 | 66 | 0 | 0.0 | 0.0 | 0.01 | 0.17 | 0.07 | 96 | 1014.0 |
| 20260901092054 | 66 | 0 | 0.0 | 0.0 | 0.01 | 0.17 | 0.07 | 96 | 1014.2 |
| 20260901091604 | 66 | 0 | 0.0 | 0.0 | 0.00 | 0.16 | 0.06 | 96 | 1014.5 |
| 20260901091056 | 66 | 0 | 0.0 | 0.0 | 0.00 | 0.16 | 0.06 | 96 | 1014.4 |
| 20260901090556 | 66 | 0 | 0.0 | 0.0 | 0.00 | 0.16 | 0.06 | 96 | 1014.5 |
| 20260901090109 | 66 | 0 | 0.0 | 0.0 | 0.00 | 0.16 | 0.06 | 96 | 1014.3 |
| 20260901085556 | 66 | 0 | 0.0 | 0.0 | 0.00 | 0.16 | 0.06 | 96 | 1014.0 |
| 20260901085056 | 66 | 0 | 0.0 | 0.0 | 0.00 | 0.16 | 0.06 | 96 | 1013.9 |
| 20260901084601 | 66 | 0 | 0.0 | 0.0 | 0.00 | 0.16 | 0.06 | 96 | 1013.9 |
| 20260901084056 | 66 | 0 | 0.0 | 0.0 | 0.00 | 0.16 | 0.06 | 96 | 1013.9 |
| 20260901083557 | 66 | 0 | 0.0 | 0.0 | 0.00 | 0.16 | 0.06 | 96 | 1013.9 |
| 20260901083106 | 66 | 0 | 0.0 | 0.0 | 0.00 | 0.16 | 0.06 | 96 | 1013.9 |
| 20260901082600 | 66 | 0 | 0.0 | 0.0 | 0.00 | 0.16 | 0.06 | 96 | 1014.0 |
| 20260901082058 | 66 | 0 | 0.0 | 0.0 | 0.00 | 0.16 | 0.06 | 95 | 1014.0 |
| 20260901081616 | 66 | 0 | 0.0 | 0.0 | 0.00 | 0.16 | 0.06 | 95 | 1014.0 |
| 20260901081057 | 66 | 0 | 0.0 | 0.0 | 0.00 | 0.16 | 0.06 | 95 | 1013.9 |
| 20260901080557 | 66 | 0 | 0.0 | 0.0 | 0.00 | 0.16 | 0.06 | 95 | 1014.0 |
| 20260901080105 | 66 | 0 | 0.0 | 0.0 | 0.00 | 0.16 | 0.06 | 95 | 1014.1 |
| 20260901075557 | 66 | 0 | 0.0 | 0.0 | 0.00 | 0.16 | 0.06 | 95 | 1014.1 |
| 20260901075055 | 66 | 0 | 0.0 | 0.0 | 0.00 | 0.16 | 0.06 | 95 | 1014.4 |
| 20260901074604 | 66 | 0 | 0.0 | 0.0 | 0.01 | 0.16 | 0.06 | 95 | 1014.3 |
| 20260901074056 | 66 | 0 | 0.0 | 0.0 | 0.01 | 0.16 | 0.06 | 95 | 1014.6 |
| 20260901073557 | 66 | 0 | 0.0 | 0.0 | 0.03 | 0.16 | 0.06 | 95 | 1014.6 |
| 20260901073105 | 66 | 0 | 0.0 | 0.0 | 0.05 | 0.16 | 0.06 | 95 | 1014.4 |
| 20260901072557 | 66 | 0 | 0.0 | 0.0 | 0.06 | 0.16 | 0.06 | 95 | 1014.6 |
| 20260901072059 | 66 | 0 | 0.0 | 0.0 | 0.06 | 0.16 | 0.06 | 95 | 1014.7 |
| 20260901071604 | 66 | 0 | 0.0 | 0.0 | 0.06 | 0.16 | 0.06 | 95 | 1014.7 |
| 20260901071100 | 66 | 0 | 0.0 | 0.0 | 0.06 | 0.16 | 0.06 | 95 | 1014.9 |
| 20260901070601 | 66 | 0 | 0.0 | 0.0 | 0.06 | 0.16 | 0.06 | 95 | 1015.0 |
| 20260901070108 | 66 | 0 | 0.0 | 0.0 | 0.06 | 0.16 | 0.06 | 95 | 1015.0 |
| 20260901065557 | 66 | 0 | 0.0 | 0.0 | 0.06 | 0.16 | 0.06 | 95 | 1015.0 |
| 20260901065057 | 66 | 0 | 0.0 | 0.0 | 0.06 | 0.16 | 0.06 | 95 | 1015.2 |
| 20260901064605 | 66 | 0 | 0.0 | 0.0 | 0.05 | 0.15 | 0.05 | 95 | 1015.1 |
| 20260901064057 | 66 | 0 | 0.0 | 0.0 | 0.05 | 0.15 | 0.05 | 95 | 1015.2 |
| 20260901063553 | 66 | 0 | 0.0 | 0.0 | 0.03 | 0.13 | 0.03 | 95 | 1015.3 |
| 20260901063105 | 66 | 0 | 0.0 | 0.0 | 0.01 | 0.11 | 0.01 | 95 | 1015.4 |
| 20260901062556 | 66 | 0 | 0.0 | 0.0 | 0.00 | 0.10 | 0.00 | 95 | 1015.5 |
| 20260901062059 | 66 | 0 | 0.0 | 0.0 | 0.00 | 0.10 | 0.00 | 95 | 1015.5 |
| 20260901061604 | 66 | 0 | 0.0 | 0.0 | 0.00 | 0.10 | 0.00 | 95 | 1015.4 |
| 20260901061057 | 66 | 0 | 0.0 | 0.0 | 0.00 | 0.10 | 0.00 | 95 | 1015.5 |
| 20260901060557 | 66 | 0 | 0.0 | 0.0 | 0.00 | 0.10 | 0.00 | 95 | 1015.4 |
| 20260901060114 | 66 | 0 | 0.0 | 0.0 | 0.00 | 0.10 | 0.00 | 95 | 1015.4 |
| 20260901055556 | 66 | 0 | 0.0 | 0.0 | 0.00 | 0.10 | 0.00 | 95 | 1015.4 |
| 20260901055056 | 66 | 0 | 0.0 | 0.0 | 0.00 | 0.10 | 0.00 | 95 | 1015.4 |
| 20260901054602 | 66 | 0 | 0.0 | 0.0 | 0.00 | 0.10 | 0.00 | 95 | 1015.4 |
| 20260901054056 | 66 | 0 | 0.0 | 0.0 | 0.00 | 0.10 | 0.00 | 95 | 1015.5 |
| 20260901053601 | 66 | 0 | 0.0 | 0.0 | 0.00 | 0.10 | 0.00 | 95 | 1015.6 |
| 20260901053123 | 66 | 0 | 0.0 | 0.0 | 0.00 | 0.10 | 0.00 | 95 | 1015.7 |
| 20260901052554 | 66 | 0 | 0.0 | 0.0 | 0.00 | 0.10 | 0.00 | 95 | 1015.7 |
| 20260901052056 | 66 | 0 | 0.0 | 0.0 | 0.00 | 0.10 | 0.00 | 95 | 1015.7 |
| 20260901051608 | 66 | 0 | 0.0 | 0.0 | 0.00 | 0.10 | 0.00 | 95 | 1015.7 |
| 20260901051054 | 66 | 0 | 0.0 | 0.0 | 0.00 | 0.10 | 0.00 | 95 | 1015.9 |
| 20260901050557 | 66 | 0 | 0.0 | 0.0 | 0.00 | 0.10 | 0.00 | 95 | 1015.8 |
| 20260901050108 | 66 | 0 | 0.0 | 0.0 | 0.00 | 0.10 | 0.00 | 95 | 1015.8 |
| 20260901045557 | 66 | 0 | 0.0 | 0.0 | 0.00 | 0.10 | 0.00 | 95 | 1015.8 |
| 20260901045101 | 66 | 0 | 0.0 | 0.0 | 0.00 | 0.10 | 0.00 | 95 | 1015.8 |
| 20260901044635 | 66 | 0 | 0.0 | 0.0 | 0.00 | 0.10 | 0.00 | 95 | 1015.7 |
| 20260901044058 | 66 | 0 | 0.0 | 0.0 | 0.00 | 0.10 | 0.00 | 95 | 1015.8 |
| 20260901043555 | 66 | 0 | 0.0 | 0.0 | 0.00 | 0.10 | 0.00 | 95 | 1015.8 |
| 20260901043119 | 66 | 0 | 0.0 | 0.0 | 0.00 | 0.10 | 0.00 | 95 | 1015.9 |
| 20260901042556 | 66 | 0 | 0.0 | 0.0 | 0.00 | 0.10 | 0.00 | 95 | 1015.9 |
| 20260901042056 | 66 | 0 | 0.0 | 0.0 | 0.00 | 0.10 | 0.00 | 95 | 1016.0 |
| 20260901041605 | 66 | 0 | 0.0 | 0.0 | 0.00 | 0.10 | 0.00 | 95 | 1016.0 |
| 20260901041056 | 66 | 0 | 0.0 | 0.0 | 0.00 | 0.10 | 0.00 | 95 | 1016.0 |
| 20260901040557 | 66 | 0 | 0.0 | 0.0 | 0.00 | 0.10 | 0.00 | 95 | 1016.1 |
| 20260901035556 | 66 | 0 | 0.0 | 0.0 | 0.00 | 0.10 | 0.10 | 95 | 1016.2 |
| 20260901035054 | 66 | 0 | 0.0 | 0.0 | 0.00 | 0.10 | 0.10 | 95 | 1016.2 |
| 20260901034608 | 66 | 0 | 0.0 | 0.0 | 0.00 | 0.10 | 0.10 | 95 | 1016.1 |
| 20260901034100 | 66 | 0 | 0.0 | 0.0 | 0.00 | 0.10 | 0.10 | 95 | 1016.1 |
| 20260901033558 | 66 | 0 | 0.0 | 0.0 | 0.01 | 0.10 | 0.10 | 95 | 1016.3 |
| 20260901033107 | 66 | 0 | 0.0 | 0.0 | 0.01 | 0.10 | 0.10 | 95 | 1016.2 |
| 20260901032600 | 66 | 0 | 0.0 | 0.0 | 0.01 | 0.10 | 0.10 | 95 | 1016.3 |
| 20260901032101 | 66 | 0 | 0.0 | 0.0 | 0.01 | 0.10 | 0.10 | 95 | 1016.2 |
| 20260901031602 | 66 | 0 | 0.0 | 0.0 | 0.01 | 0.10 | 0.10 | 95 | 1016.2 |
| 20260901031057 | 66 | 0 | 0.0 | 0.0 | 0.01 | 0.10 | 0.10 | 95 | 1016.3 |
| 20260901030557 | 66 | 0 | 0.0 | 0.0 | 0.01 | 0.10 | 0.10 | 95 | 1016.3 |
| 20260901030104 | 66 | 0 | 0.0 | 0.0 | 0.01 | 0.10 | 0.10 | 95 | 1016.4 |
| 20260901025557 | 66 | 0 | 0.0 | 0.0 | 0.01 | 0.10 | 0.10 | 95 | 1016.4 |
| 20260901025057 | 66 | 0 | 0.0 | 0.0 | 0.01 | 0.10 | 0.10 | 95 | 1016.4 |
| 20260901024607 | 66 | 0 | 0.0 | 0.0 | 0.01 | 0.10 | 0.10 | 95 | 1016.4 |
| 20260901024058 | 66 | 0 | 0.0 | 0.0 | 0.01 | 0.10 | 0.10 | 95 | 1016.5 |
| 20260901023558 | 66 | 0 | 0.0 | 0.0 | 0.00 | 0.09 | 0.09 | 95 | 1016.5 |
| 20260901023107 | 66 | 0 | 0.0 | 0.0 | 0.00 | 0.09 | 0.09 | 95 | 1016.4 |
| 20260901022556 | 66 | 0 | 0.0 | 0.0 | 0.00 | 0.09 | 0.09 | 95 | 1016.5 |
| 20260901022056 | 66 | 0 | 0.0 | 0.0 | 0.00 | 0.09 | 0.09 | 95 | 1016.5 |
| 20260901021636 | 66 | 0 | 0.0 | 0.0 | 0.00 | 0.09 | 0.09 | 95 | 1016.5 |
| 20260901021057 | 66 | 0 | 0.0 | 0.0 | 0.00 | 0.09 | 0.09 | 94 | 1016.5 |
| 20260901020557 | 66 | 0 | 0.0 | 0.0 | 0.00 | 0.09 | 0.09 | 94 | 1016.4 |
| 20260901020118 | 67 | 0 | 0.0 | 0.0 | 0.00 | 0.09 | 0.09 | 94 | 1016.4 |
| 20260901015556 | 67 | 0 | 0.0 | 0.0 | 0.00 | 0.09 | 0.09 | 94 | 1016.5 |
| 20260901015058 | 67 | 0 | 0.0 | 0.0 | 0.00 | 0.09 | 0.09 | 94 | 1016.5 |
| 20260901014607 | 67 | 0 | 0.0 | 0.0 | 0.00 | 0.09 | 0.09 | 94 | 1016.6 |
| 20260901014056 | 67 | 0 | 0.0 | 0.0 | 0.01 | 0.09 | 0.09 | 94 | 1016.5 |
| 20260901013556 | 67 | 0 | 0.0 | 0.0 | 0.01 | 0.09 | 0.09 | 94 | 1016.7 |
| 20260901013113 | 67 | 0 | 0.0 | 0.0 | 0.01 | 0.09 | 0.09 | 94 | 1016.8 |
| 20260901012559 | 67 | 0 | 0.0 | 0.0 | 0.01 | 0.09 | 0.09 | 94 | 1016.9 |
| 20260901012056 | 67 | 0 | 0.0 | 0.0 | 0.01 | 0.09 | 0.09 | 94 | 1016.8 |
| 20260901011607 | 67 | 0 | 0.0 | 0.0 | 0.01 | 0.09 | 0.09 | 94 | 1017.0 |
| 20260901011059 | 67 | 0 | 0.0 | 0.0 | 0.01 | 0.09 | 0.09 | 94 | 1017.0 |
| 20260901010556 | 67 | 0 | 0.0 | 0.0 | 0.01 | 0.09 | 0.09 | 94 | 1016.9 |
| 20260901010109 | 67 | 0 | 0.0 | 0.0 | 0.01 | 0.09 | 0.09 | 94 | 1016.8 |
| 20260901005557 | 67 | 0 | 0.0 | 0.0 | 0.01 | 0.09 | 0.09 | 94 | 1016.8 |
| 20260901005056 | 67 | 0 | 0.0 | 0.0 | 0.01 | 0.09 | 0.09 | 94 | 1016.7 |
| 20260901004624 | 67 | 0 | 0.0 | 0.0 | 0.01 | 0.09 | 0.09 | 94 | 1016.7 |
| 20260901004056 | 67 | 0 | 0.0 | 0.0 | 0.00 | 0.08 | 0.08 | 94 | 1016.7 |
| 20260901003556 | 67 | 0 | 0.0 | 0.0 | 0.00 | 0.08 | 0.08 | 94 | 1016.5 |
| 20260901003123 | 67 | 0 | 0.0 | 0.0 | 0.00 | 0.08 | 0.08 | 94 | 1016.6 |
| 20260901002556 | 67 | 0 | 0.0 | 0.0 | 0.00 | 0.08 | 0.08 | 94 | 1016.6 |
| 20260901002056 | 67 | 0 | 0.0 | 0.0 | 0.00 | 0.08 | 0.08 | 94 | 1016.6 |
| 20260901001614 | 67 | 0 | 0.0 | 0.0 | 0.00 | 0.08 | 0.08 | 94 | 1016.6 |
| 20260901001057 | 67 | 0 | 0.0 | 0.0 | 0.00 | 0.08 | 0.08 | 94 | 1016.5 |
| 20260901000556 | 67 | 0 | 0.0 | 0.0 | 0.00 | 0.08 | 0.08 | 94 | 1016.4 |
| 20260901000124 | 67 | 0 | 0.0 | 0.0 | 0.00 | 0.08 | 0.08 | 94 | 1016.4 |
| 20260831235556 | 67 | 0 | 0.0 | 0.0 | 0.00 | 0.08 | 0.08 | 94 | 1016.5 |
| 20260831235056 | 67 | 0 | 0.0 | 0.0 | 0.00 | 0.08 | 0.08 | 94 | 1016.4 |
| 20260831234619 | 67 | 0 | 0.0 | 0.0 | 0.00 | 0.08 | 0.08 | 94 | 1016.5 |
| 20260831234057 | 67 | 0 | 0.0 | 0.0 | 0.00 | 0.08 | 0.08 | 93 | 1016.5 |
| 20260831233557 | 67 | 0 | 0.0 | 0.0 | 0.00 | 0.08 | 0.08 | 93 | 1016.5 |
| 20260831233102 | 67 | 0 | 0.0 | 0.0 | 0.01 | 0.08 | 0.08 | 93 | 1016.5 |
| 20260831232557 | 67 | 0 | 0.0 | 0.0 | 0.01 | 0.08 | 0.08 | 93 | 1016.5 |
| 20260831232054 | 67 | 0 | 0.0 | 0.0 | 0.01 | 0.08 | 0.08 | 93 | 1016.6 |
| 20260831231609 | 67 | 0 | 0.0 | 0.0 | 0.01 | 0.08 | 0.08 | 93 | 1016.6 |
| 20260831231059 | 67 | 0 | 0.0 | 0.0 | 0.01 | 0.08 | 0.08 | 93 | 1016.7 |
| 20260831230559 | 67 | 0 | 0.0 | 0.0 | 0.01 | 0.08 | 0.08 | 93 | 1016.7 |
| 20260831230107 | 67 | 0 | 0.0 | 0.0 | 0.01 | 0.08 | 0.08 | 93 | 1016.8 |
| 20260831225556 | 67 | 0 | 0.0 | 0.0 | 0.01 | 0.08 | 0.08 | 93 | 1016.8 |
| 20260831225058 | 67 | 0 | 0.0 | 0.0 | 0.01 | 0.08 | 0.08 | 93 | 1016.8 |
| 20260831224606 | 67 | 0 | 0.0 | 0.0 | 0.01 | 0.08 | 0.08 | 93 | 1016.7 |
| 20260831224101 | 67 | 0 | 0.0 | 0.0 | 0.02 | 0.08 | 0.08 | 93 | 1016.7 |
| 20260831223557 | 67 | 0 | 0.0 | 0.0 | 0.02 | 0.08 | 0.08 | 93 | 1016.8 |
| 20260831223105 | 67 | 0 | 0.0 | 0.0 | 0.01 | 0.07 | 0.07 | 93 | 1017.0 |
| 20260831222557 | 67 | 0 | 0.0 | 0.0 | 0.01 | 0.07 | 0.07 | 93 | 1017.0 |
| 20260831222058 | 67 | 0 | 0.0 | 0.0 | 0.01 | 0.07 | 0.07 | 93 | 1016.9 |
| 20260831221607 | 68 | 0 | 0.0 | 0.0 | 0.01 | 0.07 | 0.07 | 93 | 1016.8 |
| 20260831221057 | 68 | 0 | 0.0 | 0.0 | 0.01 | 0.07 | 0.07 | 93 | 1017.0 |
| 20260831220557 | 68 | 0 | 0.0 | 0.0 | 0.01 | 0.07 | 0.07 | 93 | 1017.0 |
| 20260831220118 | 68 | 0 | 0.0 | 0.0 | 0.01 | 0.07 | 0.07 | 93 | 1017.1 |
| 20260831215559 | 68 | 0 | 0.0 | 0.0 | 0.01 | 0.07 | 0.07 | 93 | 1017.1 |
| 20260831215059 | 68 | 0 | 0.0 | 0.0 | 0.01 | 0.07 | 0.07 | 92 | 1017.2 |
| 20260831214607 | 68 | 0 | 0.0 | 0.0 | 0.01 | 0.07 | 0.07 | 92 | 1017.1 |
| 20260831214057 | 68 | 0 | 0.0 | 0.0 | 0.00 | 0.06 | 0.06 | 92 | 1017.0 |
| 20260831213556 | 68 | 0 | 0.0 | 0.0 | 0.00 | 0.06 | 0.06 | 92 | 1017.0 |
| 20260831213102 | 68 | 0 | 0.0 | 0.0 | 0.00 | 0.06 | 0.06 | 92 | 1017.1 |
| 20260831212600 | 68 | 0 | 0.0 | 0.0 | 0.00 | 0.06 | 0.06 | 92 | 1017.3 |
| 20260831212057 | 68 | 0 | 0.0 | 0.0 | 0.00 | 0.06 | 0.06 | 92 | 1017.3 |
| 20260831211611 | 68 | 0 | 0.0 | 0.0 | 0.00 | 0.06 | 0.06 | 92 | 1017.4 |
| 20260831211057 | 68 | 0 | 0.0 | 0.0 | 0.00 | 0.06 | 0.06 | 92 | 1017.5 |
| 20260831210559 | 68 | 0 | 0.0 | 0.0 | 0.00 | 0.06 | 0.06 | 92 | 1017.5 |
| 20260831210107 | 68 | 0 | 0.0 | 0.0 | 0.00 | 0.06 | 0.06 | 92 | 1017.5 |
| 20260831205556 | 68 | 0 | 0.0 | 0.0 | 0.00 | 0.06 | 0.06 | 92 | 1017.5 |
| 20260831205056 | 68 | 0 | 0.0 | 0.0 | 0.00 | 0.06 | 0.06 | 92 | 1017.5 |
| 20260831204608 | 68 | 0 | 0.0 | 0.0 | 0.00 | 0.06 | 0.06 | 92 | 1017.6 |
| 20260831204056 | 68 | 0 | 0.0 | 0.0 | 0.00 | 0.06 | 0.06 | 91 | 1017.6 |
| 20260831203558 | 68 | 0 | 0.0 | 0.0 | 0.00 | 0.06 | 0.06 | 91 | 1017.7 |
| 20260831203104 | 68 | 0 | 0.0 | 0.0 | 0.00 | 0.06 | 0.06 | 91 | 1017.6 |
| 20260831202557 | 68 | 0 | 0.0 | 0.0 | 0.00 | 0.06 | 0.06 | 91 | 1017.7 |
| 20260831202057 | 68 | 0 | 0.0 | 0.0 | 0.00 | 0.06 | 0.06 | 91 | 1017.8 |
| 20260831201609 | 69 | 0 | 0.0 | 0.0 | 0.00 | 0.06 | 0.06 | 91 | 1017.7 |
| 20260831201100 | 69 | 0 | 0.0 | 0.0 | 0.00 | 0.06 | 0.06 | 91 | 1017.7 |
| 20260831200559 | 69 | 0 | 0.0 | 0.0 | 0.00 | 0.06 | 0.06 | 91 | 1017.7 |
| 20260831200108 | 69 | 0 | 0.0 | 1.0 | 0.00 | 0.06 | 0.06 | 90 | 1017.8 |
| 20260831195559 | 69 | 0 | 0.0 | 1.0 | 0.00 | 0.06 | 0.06 | 90 | 1017.9 |
| 20260831195101 | 69 | 0 | 0.0 | 1.0 | 0.00 | 0.06 | 0.06 | 90 | 1017.8 |
| 20260831194635 | 69 | 0 | 0.0 | 1.0 | 0.00 | 0.06 | 0.06 | 90 | 1017.8 |
| 20260831194100 | 69 | 0 | 0.0 | 0.0 | 0.00 | 0.06 | 0.06 | 90 | 1017.7 |
| 20260831193600 | 69 | 0 | 0.0 | 0.0 | 0.00 | 0.06 | 0.06 | 90 | 1017.8 |
| 20260831193102 | 70 | 0 | 0.0 | 0.0 | 0.00 | 0.06 | 0.06 | 90 | 1017.7 |
| 20260831192556 | 70 | 0 | 0.0 | 0.0 | 0.00 | 0.06 | 0.06 | 90 | 1017.7 |
| 20260831192100 | 70 | 0 | 0.0 | 0.0 | 0.00 | 0.06 | 0.06 | 90 | 1017.8 |
| 20260831191605 | 70 | 0 | 0.0 | 0.0 | 0.00 | 0.06 | 0.06 | 90 | 1017.9 |
| 20260831191100 | 70 | 0 | 0.0 | 0.0 | 0.00 | 0.06 | 0.06 | 90 | 1018.0 |
| 20260831190556 | 70 | 0 | 0.0 | 0.0 | 0.00 | 0.06 | 0.06 | 90 | 1018.1 |
| 20260831190120 | 70 | 0 | 0.0 | 0.0 | 0.00 | 0.06 | 0.06 | 90 | 1018.1 |
| 20260831185557 | 70 | 0 | 0.0 | 1.0 | 0.00 | 0.06 | 0.06 | 89 | 1018.1 |
| 20260831185056 | 70 | 0 | 0.0 | 1.0 | 0.00 | 0.06 | 0.06 | 89 | 1018.2 |
| 20260831184632 | 71 | 0 | 0.0 | 0.0 | 0.00 | 0.06 | 0.06 | 89 | 1018.3 |
| 20260831184059 | 71 | 0 | 0.0 | 0.0 | 0.00 | 0.06 | 0.06 | 88 | 1018.1 |
| 20260831183558 | 71 | 0 | 0.0 | 1.0 | 0.00 | 0.06 | 0.06 | 88 | 1018.3 |
| 20260831183109 | 71 | 0 | 0.0 | 1.0 | 0.00 | 0.06 | 0.06 | 88 | 1018.3 |
| 20260831182554 | 71 | 0 | 0.0 | 1.0 | 0.00 | 0.06 | 0.06 | 89 | 1018.3 |
| 20260831182054 | 71 | 0 | 0.0 | 1.0 | 0.00 | 0.06 | 0.06 | 90 | 1018.4 |
| 20260831181606 | 71 | 0 | 0.0 | 2.0 | 0.00 | 0.06 | 0.06 | 89 | 1018.3 |
| 20260831181058 | 71 | 0 | 0.0 | 3.0 | 0.00 | 0.06 | 0.06 | 91 | 1018.5 |
| 20260831180557 | 70 | 0 | 0.0 | 3.0 | 0.00 | 0.06 | 0.06 | 90 | 1018.6 |
| 20260831180108 | 70 | 0 | 0.0 | 3.0 | 0.00 | 0.06 | 0.06 | 91 | 1018.5 |
| 20260831175557 | 70 | 0 | 0.0 | 1.0 | 0.00 | 0.06 | 0.06 | 92 | 1018.3 |
| 20260831175057 | 70 | 0 | 0.0 | 1.0 | 0.00 | 0.06 | 0.06 | 94 | 1018.5 |
| 20260831174613 | 69 | 0 | 0.0 | 0.0 | 0.00 | 0.06 | 0.06 | 94 | 1018.5 |
| 20260831174057 | 68 | 0 | 0.0 | 0.0 | 0.00 | 0.06 | 0.06 | 94 | 1018.6 |
| 20260831173556 | 68 | 0 | 0.0 | 0.0 | 0.00 | 0.06 | 0.06 | 93 | 1018.8 |
| 20260831173109 | 68 | 0 | 0.0 | 0.0 | 0.00 | 0.06 | 0.06 | 94 | 1018.9 |
| 20260831172554 | 68 | 0 | 0.0 | 0.0 | 0.00 | 0.06 | 0.06 | 93 | 1019.0 |
| 20260831172056 | 68 | 0 | 0.0 | 0.0 | 0.00 | 0.06 | 0.06 | 94 | 1019.0 |
| 20260831171608 | 67 | 0 | 0.0 | 0.0 | 0.00 | 0.06 | 0.06 | 94 | 1019.1 |
| 20260831171057 | 67 | 0 | 0.0 | 0.0 | 0.00 | 0.06 | 0.06 | 94 | 1019.1 |
| 20260831170556 | 67 | 0 | 0.0 | 0.0 | 0.00 | 0.06 | 0.06 | 94 | 1019.2 |
| 20260831165559 | 67 | 0 | 0.0 | 0.0 | 0.00 | 0.06 | 0.06 | 94 | 1019.2 |
| 20260831165056 | 67 | 0 | 0.0 | 0.0 | 0.00 | 0.06 | 0.06 | 94 | 1019.2 |
| 20260831164603 | 67 | 0 | 0.0 | 0.0 | 0.00 | 0.06 | 0.06 | 94 | 1019.2 |
| 20260831164056 | 67 | 0 | 0.0 | 0.0 | 0.00 | 0.06 | 0.06 | 93 | 1019.3 |
| 20260831163557 | 67 | 0 | 0.0 | 0.0 | 0.00 | 0.06 | 0.06 | 93 | 1019.4 |
| 20260831163109 | 67 | 0 | 0.0 | 0.0 | 0.00 | 0.06 | 0.06 | 93 | 1019.5 |
| 20260831162554 | 67 | 0 | 0.0 | 0.0 | 0.01 | 0.06 | 0.06 | 93 | 1019.4 |
| 20260831162054 | 67 | 0 | 0.0 | 0.0 | 0.01 | 0.06 | 0.06 | 94 | 1019.5 |
| 20260831161606 | 67 | 0 | 0.0 | 0.0 | 0.01 | 0.06 | 0.06 | 93 | 1019.6 |
| 20260831161057 | 67 | 0 | 0.0 | 0.0 | 0.01 | 0.06 | 0.06 | 93 | 1019.6 |
| 20260831160557 | 68 | 0 | 0.0 | 0.0 | 0.01 | 0.06 | 0.06 | 93 | 1019.7 |
| 20260831160104 | 68 | 0 | 0.0 | 0.0 | 0.01 | 0.06 | 0.06 | 94 | 1019.8 |
| 20260831155557 | 68 | 0 | 0.0 | 0.0 | 0.01 | 0.06 | 0.06 | 93 | 1019.9 |
| 20260831155101 | 68 | 0 | 0.0 | 0.0 | 0.02 | 0.06 | 0.06 | 94 | 1019.9 |
| 20260831154630 | 68 | 0 | 0.0 | 0.0 | 0.02 | 0.06 | 0.06 | 94 | 1019.9 |
| 20260831154053 | 68 | 0 | 0.0 | 0.0 | 0.02 | 0.06 | 0.06 | 95 | 1019.8 |
| 20260831153554 | 68 | 0 | 0.0 | 0.0 | 0.02 | 0.06 | 0.06 | 94 | 1019.7 |
| 20260831153106 | 68 | 0 | 0.0 | 0.0 | 0.03 | 0.06 | 0.06 | 95 | 1019.7 |
| 20260831152557 | 68 | 0 | 0.0 | 0.0 | 0.02 | 0.05 | 0.05 | 95 | 1019.8 |
| 20260831152057 | 67 | 0 | 0.0 | 0.0 | 0.02 | 0.05 | 0.05 | 95 | 1019.6 |
| 20260831151605 | 67 | 0 | 0.0 | 0.0 | 0.02 | 0.05 | 0.05 | 95 | 1019.5 |
| 20260831151057 | 67 | 0 | 0.0 | 0.0 | 0.03 | 0.05 | 0.05 | 95 | 1019.6 |
| 20260831150557 | 67 | 0 | 0.0 | 0.0 | 0.03 | 0.05 | 0.05 | 95 | 1019.4 |
| 20260831150104 | 67 | 0 | 0.0 | 0.0 | 0.04 | 0.05 | 0.05 | 95 | 1019.4 |
| 20260831145554 | 67 | 0 | 0.0 | 0.0 | 0.05 | 0.05 | 0.05 | 95 | 1019.5 |
| 20260831145057 | 67 | 0 | 0.0 | 0.0 | 0.04 | 0.04 | 0.04 | 95 | 1019.6 |
| 20260831144635 | 67 | 0 | 0.0 | 0.0 | 0.04 | 0.04 | 0.04 | 95 | 1019.6 |
| 20260831144057 | 67 | 0 | 0.0 | 0.0 | 0.04 | 0.04 | 0.04 | 95 | 1019.7 |
| 20260831143557 | 66 | 0 | 0.0 | 0.0 | 0.04 | 0.04 | 0.04 | 95 | 1019.7 |
| 20260831143100 | 66 | 0 | 0.0 | 0.0 | 0.03 | 0.03 | 0.03 | 95 | 1019.8 |
| 20260831142557 | 66 | 0 | 0.0 | 0.0 | 0.03 | 0.03 | 0.03 | 95 | 1019.7 |
| 20260831142056 | 66 | 0 | 0.0 | 0.0 | 0.03 | 0.03 | 0.03 | 95 | 1019.6 |
| 20260831141604 | 66 | 0 | 0.0 | 0.0 | 0.03 | 0.03 | 0.03 | 95 | 1019.6 |
| 20260831141059 | 66 | 0 | 0.0 | 0.0 | 0.02 | 0.02 | 0.02 | 96 | 1019.5 |
| 20260831140559 | 66 | 0 | 0.0 | 0.0 | 0.02 | 0.02 | 0.02 | 96 | 1019.3 |
| 20260831140105 | 65 | 0 | 0.0 | 0.0 | 0.01 | 0.01 | 0.01 | 96 | 1019.4 |
| 20260831135556 | 65 | 0 | 0.0 | 0.0 | 0.00 | 0.00 | 0.00 | 96 | 1019.4 |
| 20260831135157 | 65 | 0 | 0.0 | 0.0 | 0.00 | 0.00 | 0.00 | 96 | 1019.5 |
| 20260831134605 | 65 | 0 | 0.0 | 0.0 | 0.00 | 0.00 | 0.00 | 96 | 1019.4 |
| 20260831134057 | 65 | 0 | 0.0 | 0.0 | 0.00 | 0.00 | 0.00 | 96 | 1019.1 |